Regional Weather Roundup
Issued by NWS

Home | Current Version | Previous Version | Graphics & Text | Print | Product List | Glossary On
Versions: 1 2 3 4 5 6 7 8 9 10 11 12 13 14 15 16 17 18 19 20 21 22 23 24 25 26 27 28 29 30 31 32 33 34 35 36 37 38 39 40 41 42 43 44 45 46 47 48 49 50
000
ASUS43 KBIS 252202
RWRND

NORTH DAKOTA REGIONAL WEATHER ROUNDUP
NATIONAL WEATHER SERVICE BISMARCK ND
500 PM CDT THU AUG 25 2016

NOTE: "FAIR" INDICATES FEW OR NO CLOUDS BELOW 12,000 FEET WITH NO
SIGNIFICANT WEATHER AND/OR OBSTRUCTIONS TO VISIBILITY.


NDZ001>003-009>011-017-252300-
NORTHWEST NORTH DAKOTA

CITY           SKY/WX    TMP DP  RH WIND       PRES   REMARKS
WILLISTON      PTSUNNY   75  34  22 W14       30.10F
MINOT          MOSUNNY   75  39  27 N8        30.07F
MINOT AFB      SUNNY     73  37  27 NW8G20    30.06F
$$

NDZ018>021-031>035-040>046-252300-
SOUTHWEST NORTH DAKOTA

CITY           SKY/WX    TMP DP  RH WIND       PRES   REMARKS
BISMARCK       CLOUDY    69  47  45 W6        30.15F
DICKINSON      PTSUNNY   68  33  27 NW12G17   30.14F
GARRISON         N/A     72  43  35 W8        30.10F
HETTINGER ARPT CLOUDY    66  40  38 W6        30.20F
$$

NDZ004>008-012>016-024-026-027-054-252300-
NORTHEAST NORTH DAKOTA

CITY           SKY/WX    TMP DP  RH WIND       PRES   REMARKS
GRAND FORKS    MOSUNNY   71  49  45 NW9       30.04S
GRND FRKS AFB  MOSUNNY   67  51  54 NW7       30.06S
DEVILS LAKE    SUNNY     70  46  42 NW13      30.07S
$$

NDZ022-023-025-028>030-036>039-047>053-252300-
SOUTHEAST NORTH DAKOTA

CITY           SKY/WX    TMP DP  RH WIND       PRES   REMARKS
FARGO          CLOUDY    70  49  47 W13       30.07R
JAMESTOWN      CLOUDY    66  52  60 NW8       30.10S
$$




USA.gov is the U.S. government's official web portal to all federal, state and local government web resources and services.